Vorticity
nan nan nan nan nan nan nan nan nan nan nan nan nan nan nan nan nan nan nan nan nan nan nan nan nan nan nan nan nan nan nan nan nan nan nan nan nan nan nan nan nan nan nan nan nan nan nan nan nan nan nan nan nan nan nan nan nan nan nan nan nan nan nan nan nan nan nan nan nan
nan 10 11 12 12 11 10 10 9 9 10 10 10 10 10 10 9 9 9 9 10 9 9 8 8 8 8 9 9 8 8 9 8 8 7 7 8 9 10 10 11 11 10 9 9 9 9 9 9 9 8 8 8 9 9 10 11 11 10 9 8 8 7 6 7 8 8 8 nan
nan 10 10 11 11 11 11 10 9 9 10 10 10 10 10 10 10 9 9 9 10 10 9 8 8 8 9 9 9 9 9 9 9 9 8 7 8 9 10 11 11 11 11 10 10 10 10 10 9 9 9 9 9 9 8 9 11 10 8 7 8 8 8 7 7 7 7 8 nan
nan 10 10 10 10 11 12 10 10 9 9 9 9 10 10 10 10 10 9 9 8 8 9 9 9 8 9 9 10 10 10 10 10 9 9 8 8 9 10 11 10 10 10 10 10 11 11 10 9 9 9 9 9 8 8 9 10 10 8 7 9 9 9 8 8 9 8 8 nan
nan 10 10 10 10 11 11 10 10 10 9 9 10 9 9 9 10 10 9 8 7 8 10 11 10 10 9 10 10 10 9 9 9 9 9 8 9 9 9 10 10 10 10 10 10 11 11 10 9 9 9 9 9 9 9 10 10 10 10 9 9 9 9 9 9 9 10 10 nan
nan 10 11 11 10 11 10 10 9 10 10 10 11 11 10 10 10 10 10 9 8 9 10 11 10 9 9 9 9 9 8 8 7 8 9 9 9 9 9 9 10 10 10 10 10 10 10 10 10 9 9 8 8 9 10 12 11 11 10 10 9 9 9 9 9 10 11 12 nan
nan 10 11 11 11 11 10 10 9 9 10 10 10 11 11 11 11 11 10 9 8 9 9 8 7 8 9 9 9 8 8 8 8 8 9 10 10 10 9 9 9 10 10 10 10 10 10 10 10 9 9 8 8 8 11 13 13 11 10 10 9 9 9 9 11 11 11 11 nan
nan 11 11 11 11 10 10 10 10 10 10 10 9 10 10 11 10 10 9 9 9 9 9 7 8 9 9 9 9 8 8 8 9 9 9 10 10 10 9 9 9 9 10 10 11 11 11 10 10 9 9 9 9 9 10 13 13 11 10 9 9 9 10 10 12 12 11 9 nan
nan 11 11 10 10 10 10 10 10 11 11 10 10 9 9 9 8 8 9 9 9 9 8 8 9 10 10 9 8 8 8 9 9 9 10 10 10 10 10 9 9 9 9 10 11 11 11 10 10 10 10 11 11 11 11 11 11 10 8 7 9 10 11 11 12 12 11 8 nan
nan 11 10 10 10 9 9 9 10 10 10 9 9 9 9 8 7 8 9 9 8 8 8 8 9 10 9 9 8 8 9 10 9 9 9 10 10 10 10 10 9 10 9 10 10 10 10 10 11 11 12 11 12 12 11 10 10 9 8 8 10 10 10 10 11 11 11 9 nan
nan 11 11 10 10 9 8 8 8 8 8 8 8 8 9 8 8 9 10 9 8 8 8 9 10 10 9 8 8 9 9 9 9 9 9 9 9 10 11 11 10 10 9 10 11 10 10 11 11 11 11 11 10 10 10 11 10 9 10 11 11 9 8 9 9 9 8 8 nan
nan 11 11 11 11 10 9 8 8 8 8 8 8 8 8 8 9 9 9 9 9 8 7 9 10 10 9 9 8 9 9 9 9 9 9 8 9 9 10 10 10 10 10 10 12 12 11 11 11 10 9 9 9 10 11 11 10 9 9 11 10 8 8 8 8 8 8 8 nan
nan 11 11 11 11 11 10 9 9 9 9 8 7 8 8 8 9 8 8 8 8 8 7 9 10 10 9 9 9 9 10 10 9 9 9 9 9 9 9 9 10 10 9 10 12 13 13 11 10 9 8 8 10 11 12 11 10 9 9 9 9 9 9 8 8 9 9 9 nan
nan 11 10 10 10 10 10 9 9 9 9 8 8 8 8 8 9 8 8 8 8 8 8 9 10 9 9 9 10 10 11 11 10 9 9 9 9 9 9 9 9 10 10 10 11 12 12 12 10 10 9 9 10 11 11 12 12 11 10 9 9 8 8 8 9 9 8 8 nan
nan 11 10 10 10 10 9 9 9 9 9 8 8 8 8 9 9 8 8 8 8 8 9 9 9 8 9 9 10 11 12 12 10 9 9 9 9 10 10 10 10 10 10 10 11 11 11 11 10 10 10 9 9 10 10 11 12 12 11 11 10 9 8 9 9 9 8 8 nan
nan 10 10 10 9 9 9 8 8 9 9 9 9 9 9 9 9 9 9 8 7 8 8 9 9 8 8 9 9 10 12 12 11 10 9 9 9 10 10 10 10 10 10 10 10 10 10 10 11 11 10 10 9 10 10 11 11 11 11 11 11 10 10 10 9 9 9 9 nan
nan 10 10 10 9 9 8 8 8 9 9 9 9 8 8 9 9 10 9 8 8 8 8 8 9 9 9 8 9 10 11 11 11 10 9 9 9 10 10 10 10 10 10 10 9 10 10 10 11 11 10 10 9 10 10 10 10 10 10 10 10 11 11 11 10 10 11 10 nan
nan 10 10 10 9 9 8 7 8 9 9 9 8 8 8 9 10 10 9 8 8 8 7 7 8 9 9 9 10 11 11 11 10 9 9 9 9 10 11 11 11 11 11 10 10 9 9 10 10 10 10 10 10 10 10 10 10 10 10 9 10 10 10 10 11 12 12 11 nan
nan 9 10 10 10 8 8 7 7 8 8 8 8 8 9 9 9 8 8 9 9 9 8 7 7 9 9 10 11 11 11 10 10 9 9 9 9 10 11 11 12 12 12 11 10 10 9 9 10 10 10 10 10 10 10 10 10 9 9 9 9 9 9 10 11 12 12 11 nan
nan 9 8 9 10 9 8 8 8 8 9 10 10 9 9 8 8 8 8 8 9 9 9 8 7 8 8 9 10 10 10 10 9 9 9 9 10 10 10 11 11 12 12 11 10 10 10 10 10 10 10 10 10 9 9 9 9 9 9 8 9 9 9 10 10 11 11 11 nan
nan 9 9 9 9 9 8 8 9 10 11 12 11 9 8 8 8 8 8 9 9 9 9 8 8 8 8 8 9 9 9 9 9 10 10 9 9 9 10 10 11 11 11 11 10 10 10 11 10 10 10 9 9 9 9 8 8 9 8 9 9 9 10 10 10 10 11 11 nan
nan 10 10 9 9 10 9 9 10 11 12 12 11 10 9 9 8 9 9 9 8 8 8 9 9 8 8 8 8 8 9 9 10 10 10 9 9 10 10 10 10 11 11 10 10 10 10 10 10 10 10 10 10 10 10 9 8 8 8 9 9 9 9 10 10 10 11 11 nan
nan 11 11 10 10 11 9 10 11 11 11 11 11 11 11 9 9 9 9 9 9 9 8 9 9 10 10 9 9 8 9 9 9 10 10 10 10 11 11 11 10 10 9 8 9 9 9 9 9 9 10 10 10 10 10 10 9 8 8 8 7 8 8 9 10 10 11 11 nan
nan 10 10 11 11 10 9 10 10 10 10 10 10 11 11 10 9 9 9 9 9 9 8 9 10 10 10 10 10 9 9 9 8 8 8 10 11 11 11 11 10 8 8 9 11 11 9 8 8 8 8 8 9 9 10 10 10 10 9 7 6 6 7 9 10 10 10 10 nan
nan 10 10 10 10 9 9 10 10 9 8 9 11 11 11 10 9 9 9 8 8 8 9 9 9 9 9 9 9 10 9 9 8 8 7 8 10 11 11 10 9 8 10 13 13 9 6 6 8 9 9 8 8 9 9 10 11 12 11 9 7 6 6 7 8 9 10 10 nan
nan 11 10 10 9 9 9 9 9 8 8 10 11 10 10 9 10 10 9 7 7 8 9 9 9 9 8 7 9 9 9 9 9 8 8 8 9 10 10 9 8 9 12 15 12 7 5 3 4 6 8 9 9 8 7 8 10 12 12 11 9 8 7 7 7 8 9 9 nan
nan 10 10 10 10 9 8 8 8 9 10 11 11 9 9 10 10 11 9 7 7 8 9 9 9 9 6 6 8 8 8 9 9 9 9 9 8 8 8 8 8 9 15 16 14 10 8 4 1 1 4 9 10 9 8 8 9 10 11 11 11 10 9 7 6 7 8 9 nan
nan 9 10 10 9 8 7 9 10 10 10 10 10 9 10 11 11 9 8 7 7 8 8 8 9 8 6 8 9 9 9 9 9 9 9 9 8 7 6 6 8 11 15 16 14 13 11 8 3 -1 -1 5 8 9 9 9 8 8 9 9 9 9 9 7 6 7 7 8 nan
nan 9 10 9 7 7 8 10 10 9 8 9 10 11 11 11 10 8 7 7 7 7 7 8 8 8 9 10 10 9 9 9 9 9 9 9 8 7 7 7 9 13 16 14 13 13 12 11 8 2 -3 0 6 9 10 9 8 8 8 8 9 9 8 8 9 9 9 8 nan
nan 10 10 8 6 6 8 9 9 9 9 10 12 12 11 10 9 8 8 7 6 6 7 9 9 10 10 9 8 8 9 9 10 10 10 9 8 7 8 7 9 12 16 14 13 13 13 12 11 7 -1 -3 3 8 10 10 10 9 9 9 9 9 9 9 9 10 10 9 nan
nan 10 9 8 7 6 6 8 9 10 11 12 12 12 10 9 8 7 7 6 6 8 9 10 10 9 8 9 9 9 9 9 10 10 11 10 9 8 8 7 8 10 14 15 15 13 13 12 13 9 2 -4 -1 6 10 11 11 10 10 9 9 9 8 8 7 8 9 9 nan
nan 10 9 9 7 6 7 8 10 11 12 12 11 10 9 7 6 7 8 8 9 10 10 9 9 8 7 8 9 10 10 10 10 10 10 10 9 9 9 8 8 10 11 15 17 14 12 12 13 11 5 -4 -3 6 10 11 9 9 9 9 9 8 9 8 8 8 7 8 nan
nan 10 10 8 7 6 8 9 11 12 12 11 10 9 7 5 6 8 9 10 11 11 11 10 9 7 7 7 8 9 10 10 10 10 10 10 10 10 9 9 10 12 11 15 17 15 12 11 12 11 7 -3 -5 4 9 10 8 8 8 8 8 8 9 10 10 9 8 8 nan
nan 10 9 8 8 7 8 9 11 11 11 9 9 8 7 6 7 8 8 9 10 11 11 11 10 9 8 8 8 9 9 9 8 9 10 10 10 10 9 8 11 13 11 16 19 16 11 10 11 10 6 -3 -5 3 8 9 9 9 9 8 8 8 9 10 10 10 10 10 nan
nan 9 8 8 8 8 8 9 10 10 10 8 8 8 7 8 9 8 8 9 8 9 10 11 11 11 10 9 10 11 10 8 7 9 10 9 10 9 9 8 10 13 12 18 21 19 12 9 10 9 3 -5 -2 4 8 8 8 9 9 8 7 7 8 9 9 9 10 10 nan
nan 9 8 8 8 9 9 8 9 9 9 7 7 6 7 8 9 10 10 9 8 9 9 11 12 12 10 9 10 11 11 9 8 9 9 8 8 9 8 8 10 13 14 18 22 22 14 9 9 6 -1 -6 1 7 8 7 7 8 8 7 6 6 7 9 9 10 10 10 nan
nan 9 9 8 8 8 8 8 8 8 7 6 6 8 8 7 7 10 12 10 8 10 9 10 11 11 10 8 8 10 12 10 9 9 9 8 8 8 8 8 9 12 14 16 21 25 19 12 9 4 -4 -5 4 7 7 7 7 8 7 6 5 6 7 8 9 9 10 10 nan
nan 10 9 8 8 8 8 8 8 7 6 5 6 8 9 8 7 10 12 9 7 10 10 9 9 10 10 10 9 10 12 11 10 8 8 8 8 8 8 8 8 9 11 12 18 26 25 18 10 3 -4 -1 6 6 6 6 8 8 7 6 6 6 8 9 9 10 10 12 nan
nan 10 10 9 8 8 8 8 8 7 5 5 7 8 8 8 9 10 12 9 8 11 11 9 9 10 11 10 9 9 10 11 10 8 7 8 9 8 7 7 7 8 9 9 13 22 29 24 12 4 -3 -1 4 6 7 7 8 8 7 6 6 6 7 8 9 10 10 15 nan
nan 11 10 9 8 8 8 8 7 6 6 7 9 9 8 7 9 10 10 9 10 12 12 11 10 10 11 9 7 8 8 9 10 10 9 10 10 9 5 5 7 8 10 10 10 18 29 27 13 3 -6 -2 5 7 8 9 9 7 6 6 7 7 6 6 8 9 9 12 nan
nan nan nan nan nan nan nan nan nan nan nan nan nan nan nan nan nan nan nan nan nan nan nan nan nan nan nan nan nan nan nan nan nan nan nan nan nan nan nan nan nan nan nan nan nan nan nan nan nan nan nan nan nan nan nan nan nan nan nan nan nan nan nan nan nan nan nan nan nan
CAPE
0 1 1 2 2 2 1 1 1 1 nan nan nan nan nan nan nan nan nan nan nan 0 0 0 0 nan nan nan nan nan nan nan nan 0 0 nan nan nan nan nan nan nan nan nan nan nan nan nan nan nan nan nan nan nan nan nan nan nan nan nan nan nan nan nan nan nan nan nan nan
0 0 0 1 1 1 0 1 1 1 0 nan nan nan nan nan nan nan nan nan nan nan nan nan nan nan nan nan nan nan nan nan nan nan nan nan nan nan nan nan nan nan nan nan nan nan nan nan nan nan nan nan nan nan nan nan nan nan nan nan nan nan nan nan nan nan nan nan nan
nan 0 0 0 0 0 nan 0 0 0 nan 0 nan nan nan 0 0 nan nan nan nan nan nan nan nan nan nan nan nan nan nan nan nan nan nan nan nan nan nan nan nan nan nan nan nan nan nan nan nan nan nan nan nan nan nan nan nan nan nan nan nan nan nan nan nan nan nan nan nan
nan nan nan nan nan nan 0 0 0 0 0 0 nan nan nan 0 0 0 0 nan nan nan nan nan nan nan nan nan nan nan nan nan nan nan nan nan nan nan nan nan nan nan nan nan nan nan nan nan nan nan nan nan nan nan nan nan nan nan nan nan nan nan nan nan nan nan nan nan nan
nan nan nan nan nan nan nan nan nan nan 0 nan nan nan nan nan nan nan nan nan nan nan nan nan nan nan nan nan nan nan nan nan nan nan nan nan nan nan nan nan nan nan nan nan nan nan nan nan nan nan nan nan nan nan nan nan nan nan nan nan nan nan nan nan nan nan nan nan nan
0 nan nan nan nan nan nan 0 0 0 nan nan nan nan nan nan nan nan nan nan nan nan nan nan nan nan nan nan nan nan nan nan nan nan nan nan nan nan nan nan nan nan nan nan nan nan nan nan nan nan nan nan 0 nan nan nan nan nan nan nan nan nan nan nan nan nan nan nan nan
0 nan nan nan nan nan nan nan nan nan nan nan nan nan nan nan nan nan nan nan nan nan nan nan nan nan nan nan nan nan nan nan nan nan nan nan nan nan nan nan nan nan nan nan nan nan nan nan nan nan nan 0 nan nan nan nan nan nan nan nan nan nan nan nan nan nan nan nan nan
nan nan nan nan nan nan nan nan nan nan nan nan nan nan nan nan nan nan nan nan nan nan nan nan nan nan nan nan nan nan nan nan nan nan nan nan nan nan nan nan nan nan nan nan nan nan nan nan nan nan nan nan nan nan nan nan nan nan nan nan nan nan nan nan nan nan nan nan nan
nan nan nan nan nan nan nan nan nan nan nan nan nan nan nan nan nan nan nan nan nan nan nan nan nan nan nan nan nan nan nan nan nan nan nan nan nan nan nan nan nan nan nan nan nan nan nan nan nan nan nan nan nan nan nan nan nan nan nan nan nan nan nan nan nan nan nan nan nan
nan nan nan nan nan nan nan nan nan nan nan nan nan nan nan nan nan nan nan nan 0 nan nan nan nan nan nan nan nan nan nan nan nan nan nan nan nan nan nan nan nan nan nan nan nan nan nan nan nan nan nan nan nan nan nan nan nan nan nan nan nan nan nan nan nan nan nan nan nan
nan nan nan nan nan nan nan nan nan nan nan nan nan nan nan nan nan nan nan nan nan nan nan nan nan nan nan nan nan nan nan nan nan nan nan nan nan nan nan nan nan nan nan nan nan nan nan nan nan nan nan nan nan nan nan nan nan nan nan nan nan nan nan nan nan nan nan nan nan
nan nan nan nan nan nan nan nan nan nan nan nan nan nan nan nan nan 0 0 nan nan nan nan nan nan nan nan nan nan nan nan nan nan nan nan nan nan nan nan nan nan nan nan nan nan nan nan nan nan nan nan nan nan nan nan nan nan nan nan nan nan nan nan nan nan nan nan nan nan
nan nan nan nan nan nan nan nan nan nan nan nan nan nan nan nan nan nan nan nan nan nan nan nan nan nan nan nan nan nan nan nan nan nan nan nan nan nan nan nan nan nan nan nan nan nan nan nan nan nan nan nan nan nan nan nan nan nan nan nan nan nan nan nan nan nan nan nan nan
nan nan nan nan nan nan nan nan nan nan nan nan nan nan nan nan nan nan nan nan nan nan nan nan nan nan nan nan nan nan nan nan nan nan nan nan nan nan nan nan nan nan nan nan nan nan nan nan nan nan nan nan nan nan nan nan nan nan nan nan nan nan nan nan nan nan nan nan nan
nan nan nan nan nan nan nan nan nan nan nan nan nan nan nan nan nan nan nan nan nan nan nan nan nan 0 0 nan nan nan nan nan nan nan nan nan nan nan nan nan nan nan nan nan nan nan nan nan nan nan nan nan nan nan nan nan nan nan nan nan nan nan nan nan nan nan nan nan nan
nan nan nan nan nan nan nan nan nan nan nan nan nan nan nan nan nan nan nan nan nan nan nan nan nan nan nan nan nan nan nan nan nan nan nan nan nan nan nan nan nan nan nan nan nan nan nan nan nan nan nan nan nan nan nan nan nan nan nan nan nan nan nan nan nan nan nan nan nan
nan nan nan nan nan nan nan nan nan nan nan nan nan nan nan nan nan nan nan nan nan nan nan nan nan nan nan nan nan nan nan nan nan nan nan nan nan nan nan nan nan nan nan nan nan nan nan nan nan nan nan nan nan nan nan nan nan nan nan nan nan nan nan nan nan nan nan nan nan
nan nan nan nan nan nan nan nan nan nan nan nan nan nan nan nan nan nan nan nan nan nan nan nan nan nan nan nan nan nan nan nan nan nan nan nan nan nan nan nan nan nan nan nan nan nan nan nan nan nan nan nan nan nan nan nan nan nan nan nan nan nan nan nan nan nan nan nan nan
nan nan nan nan nan nan nan nan nan nan nan nan nan nan nan nan nan nan nan nan nan nan nan nan nan nan nan nan nan nan nan nan nan nan nan nan nan nan nan nan nan nan nan nan nan nan nan nan nan nan nan nan nan nan nan nan nan nan nan nan nan nan nan nan nan nan nan nan nan
nan nan nan nan nan nan nan nan nan nan nan nan nan nan nan nan nan nan nan nan nan nan nan nan nan nan nan nan nan nan nan nan nan nan nan nan nan nan nan nan nan nan nan nan nan nan nan nan nan nan nan nan nan nan nan nan nan nan nan nan nan nan nan nan nan nan nan nan nan
nan nan nan nan nan nan nan nan nan nan nan nan nan nan nan nan nan nan nan nan nan nan nan nan nan nan nan nan nan nan nan nan nan nan nan nan nan nan nan nan nan nan nan nan nan nan nan nan nan nan nan nan nan nan nan nan nan nan nan nan nan nan nan nan nan nan nan nan nan
nan nan nan nan nan nan nan nan nan nan nan nan nan nan nan nan nan nan nan nan nan nan nan nan nan nan nan nan nan nan nan nan nan nan nan nan nan nan nan nan nan nan nan nan nan nan nan nan nan nan nan nan nan nan nan nan nan nan nan nan nan nan nan nan nan nan nan nan nan
nan nan nan nan nan nan nan nan nan nan nan nan nan nan nan nan nan nan nan nan nan nan nan nan nan nan nan nan nan nan nan nan nan nan nan nan nan nan nan nan nan nan nan nan nan nan nan nan nan nan nan nan nan nan nan nan nan nan nan nan nan nan nan nan nan nan nan nan nan
nan nan nan nan nan nan nan nan nan nan nan nan nan nan nan nan nan nan nan nan nan nan nan nan nan nan nan nan nan nan nan nan nan nan nan nan nan nan nan nan nan nan nan nan nan nan nan nan nan nan nan nan nan nan nan nan nan nan nan nan nan nan nan nan nan nan nan nan nan
nan nan nan nan nan nan nan nan nan nan nan nan nan nan nan nan nan nan nan nan nan nan nan nan nan nan nan nan nan nan nan nan nan nan nan nan nan nan nan nan nan nan nan nan 7 7 4 nan nan nan nan nan nan nan nan nan nan nan nan nan nan nan nan nan nan nan nan nan nan
nan nan nan nan nan nan nan nan nan nan nan nan nan nan nan nan nan nan nan nan nan nan nan nan nan nan nan nan nan nan nan nan nan nan nan nan nan nan nan nan nan nan nan 0 17 17 19 14 0 0 nan nan nan nan nan nan nan nan nan nan nan nan nan nan nan nan nan nan nan
nan nan nan nan nan nan nan nan nan nan nan nan nan nan nan nan nan nan nan nan nan nan nan nan nan nan nan nan nan nan nan nan nan nan nan nan nan nan nan nan nan nan nan 5 19 19 21 21 14 14 nan nan nan nan nan nan nan nan nan nan nan nan nan nan nan nan nan nan nan
nan nan nan nan nan nan nan nan nan nan nan nan nan nan nan nan nan nan nan nan nan nan nan nan nan nan nan nan nan nan nan nan nan nan nan nan nan nan nan nan nan nan nan 14 19 19 20 22 19 19 0 nan nan nan nan nan nan nan nan nan nan nan nan nan nan nan nan nan nan
nan nan nan nan nan nan nan nan nan nan nan nan nan nan nan nan nan nan nan nan nan nan nan nan nan nan nan nan nan nan nan nan nan nan nan nan nan nan nan nan nan nan nan 19 20 20 19 20 19 19 13 0 nan nan nan nan nan nan nan nan nan nan nan nan nan nan nan nan nan
nan nan nan nan nan nan nan nan nan nan nan nan nan nan nan nan nan nan nan nan nan nan nan nan nan nan nan nan nan nan nan nan nan nan nan nan nan nan nan nan nan nan nan 17 22 22 19 18 18 18 19 1 nan nan nan nan nan nan nan nan nan nan nan nan nan nan nan nan nan
nan nan nan nan nan nan nan nan nan nan nan nan nan nan nan nan nan nan nan nan nan nan nan nan nan nan nan nan nan nan nan nan nan nan nan nan nan nan nan nan nan nan nan 14 25 25 21 19 20 20 20 3 nan nan nan nan nan nan nan nan nan nan nan nan nan nan nan nan nan
nan nan nan nan nan nan nan nan nan nan nan nan nan nan nan nan nan nan nan nan nan nan nan nan nan nan nan nan nan nan nan nan nan nan nan nan nan nan nan nan nan nan nan 5 27 27 20 19 18 18 19 7 0 nan nan nan nan nan nan nan nan nan nan nan nan nan nan nan nan
nan nan nan nan nan nan nan nan nan nan nan nan nan nan nan nan nan nan nan nan nan nan nan nan nan nan nan nan nan nan nan nan nan nan nan nan nan nan nan nan nan nan nan 2 26 26 18 18 17 17 17 10 nan nan nan nan nan nan nan nan nan nan nan nan nan nan nan nan nan
nan nan nan nan nan nan nan nan nan nan nan nan nan nan nan nan nan nan nan nan nan nan nan nan nan nan nan nan nan nan nan nan nan nan nan nan nan nan nan nan nan nan nan 1 27 27 22 17 17 17 18 11 nan nan nan nan nan nan nan nan nan nan nan nan nan nan nan nan nan
nan nan nan nan nan nan nan nan nan nan nan nan nan nan nan nan nan nan nan nan nan nan nan nan nan nan nan nan nan nan nan nan nan nan nan nan nan nan nan nan nan nan nan nan 23 23 24 19 19 19 19 2 nan nan nan nan nan nan nan nan nan nan nan nan nan nan nan nan nan
nan nan nan nan nan nan nan nan nan nan nan nan nan nan nan nan nan nan nan nan nan nan nan nan nan nan nan nan nan nan nan nan nan nan nan nan nan nan nan nan nan nan nan 0 19 19 27 22 23 23 20 nan nan nan nan nan nan nan nan nan nan nan nan nan nan nan nan nan nan
nan nan nan nan nan nan nan nan nan nan nan nan nan nan nan nan nan nan nan nan nan nan nan nan nan nan nan nan nan nan nan nan nan nan nan nan nan nan nan nan nan nan nan nan 13 13 32 27 29 29 8 nan nan nan nan nan nan nan nan nan nan nan nan nan nan nan nan nan nan
nan nan nan nan nan nan nan nan nan nan nan nan nan nan nan nan nan nan nan nan nan nan nan nan nan nan nan nan nan nan nan nan nan nan nan nan nan nan nan nan nan nan nan nan 5 5 32 32 27 27 0 nan nan nan nan nan nan nan nan nan nan nan nan nan nan nan nan nan nan
nan nan nan nan nan nan nan nan nan nan nan nan nan nan nan nan nan nan nan nan nan nan nan nan nan nan nan nan nan nan nan nan nan nan nan nan nan nan nan nan nan nan nan nan 1 1 24 37 20 20 1 nan nan nan nan nan nan nan nan nan nan nan nan nan nan nan nan nan nan
nan nan nan nan nan nan nan nan nan nan nan nan nan nan nan nan nan nan nan nan nan nan nan nan nan nan nan nan nan nan nan nan nan nan nan nan nan nan nan nan nan nan nan nan 0 0 16 34 15 15 1 nan nan nan nan nan nan nan nan nan nan nan nan nan nan nan nan nan 0
nan nan nan nan nan nan nan nan nan nan nan nan nan nan nan nan nan nan nan nan nan nan nan nan nan nan nan nan nan nan nan nan nan nan nan nan nan 3 3 nan nan nan nan nan nan nan 12 36 14 14 1 nan nan nan nan nan nan nan nan nan nan nan nan nan nan nan nan nan nan